Simultaneous Nadir Overpasses (SNOs) Predictions

Prediction of SNOs between TERRA and METOP-C Satellite Orbit:

Table of predicted SNOs for the next 14.0 days since TLE Epoch: 10/3/2020
Index Date (TERRA) Time (TERRA) Lat,Lon (TERRA) SZA (TERRA ) Date (METOP-C) Time (METOP-C) Lat,Lon (METOP-C) SZA (METOP-C ) Distance(km) Time Diff (sec)
1 10/05/2020 04:43:15 81.32, 156.82 89.34 10/05/2020 04:42:25 81.32, 156.78 89.31 0.87 50
2 10/05/2020 05:32:42 -81.32, -35.63 90.66 10/05/2020 05:33:06 -81.32, -35.68 90.65 0.82 24
3 10/08/2020 00:17:30 81.32,-136.76 90.43 10/08/2020 00:16:45 81.32,-136.66 90.42 1.56 45
4 10/08/2020 01:06:57 -81.32, 30.82 89.57 10/08/2020 01:07:26 -81.33, 30.93 89.54 1.87 29
5 10/10/2020 19:51:45 81.32, -70.37 91.51 10/10/2020 19:51:06 81.32, -70.51 91.47 2.47 39
6 10/10/2020 20:41:12 -81.32, 97.24 88.49 10/10/2020 20:41:47 -81.32, 97.11 88.48 2.16 35
7 10/13/2020 15:25:59 81.32, -4.01 92.56 10/13/2020 15:25:25 81.32, -3.98 92.55 0.60 34
8 10/13/2020 16:15:26 -81.32, 163.63 87.43 10/13/2020 16:16:06 -81.32, 163.67 87.40 1.18 40
9 10/16/2020 11:00:13 81.33, 62.70 93.65 10/16/2020 10:59:45 81.32, 62.53 93.61 2.92 28



Historial Predications of SNOs between TERRA and METOP-C
